This demonstration page uses our WeatherBlox Daily Observations layout. Learn more.

Left ArrowRight Arrow

Hourly Observations for May 26, 2020

Temp ( °F °C ) Dew Point ( °F °C ) Humidity (%) Winds ( mph kmh ) Pressure ( in mb ) Visibility ( mi km ) Precip ( " mm )
12:52 am 00:52 Cloudy 63 17.2 61 16.1 93 93 NW 8 13 29.86 1011 9 14 0.00 0.00
1:19 am 01:19 Cloudy with Light Rain 63 17.2 61 16.1 93 93 WNW 3 6 29.86 1011 2 3 0.01 0.25
1:52 am 01:52 Cloudy with Light Rain 62 16.7 61 16.1 96 96 NW 6 9 29.85 1011 2 3 0.05 1.27
2:47 am 02:47 Cloudy with Mist and Fog 63 17 61 16 94 94 NNW 10 17 29.83 1010 3 5 0.01 0.25
2:52 am 02:52 Cloudy with Mist and Fog 62 16.7 60 15.6 93 93 NNW 9 15 29.84 1010 3 5 0.01 0.25
3:52 am 03:52 Cloudy with Mist and Fog 62 16.7 60 15.6 93 93 NNW 8 13 29.84 1011 5 8 0.00 0.00
4:52 am 04:52 Cloudy with Light Rain 61 16.1 60 15.6 97 97 NNW 9 15 29.83 1010 5 8 0.00 0.00
5:52 am 05:52 Cloudy with Light Rain 61 16.1 60 15.6 97 97 N 10 17 29.83 1010 3 5 0.01 0.25
6:13 am 06:13 Cloudy with Light Rain 61 16.1 60 15.6 97 97 N 9 15 29.84 1010 3 4 0.00 0.00
6:27 am 06:27 Cloudy with Light Rain 61 16.1 60 15.6 97 97 N 9 15 29.85 1011 2 2 0.00 0.00
6:52 am 06:52 Cloudy with Light Rain 61 16.1 60 15.6 97 97 N 12 19 29.82 1010 2 3 0.08 2.03
7:40 am 07:40 Cloudy with Light Rain 61 16.1 60 15.6 97 97 N 12 19 29.80 1009 2 3 0.02 0.51
7:52 am 07:52 Cloudy with Light Rain 61 16.1 60 15.6 97 97 NNW 12 19 29.80 1009 2 3 0.02 0.51
8:06 am 08:06 Cloudy with Light Rain 62 16.7 60 15.6 93 93 N 12 19 29.80 1009 2 3 0.00 0.00
8:42 am 08:42 Cloudy with Light Rain 62 16.7 61 16.1 96 96 N 10 17 29.80 1009 3 5 0.00 0.00
8:52 am 08:52 Cloudy with Light Rain 62 16.7 61 16.1 96 96 N 13 20 29.80 1009 3 5 0.00 0.00
9:02 am 09:02 Cloudy with Light Rain 62 16.7 61 16.1 96 96 NNW 14 22 29.80 1009 2 3 0.01 0.25
9:32 am 09:32 Cloudy with Rain 62 16.7 61 16.1 96 96 NNW 10 17 29.80 1009 1 2 0.05 1.27
9:52 am 09:52 Cloudy with Rain 62 16.7 61 16.1 96 96 NNW 12 19 29.81 1009 1 2 0.09 2.29
10:00 am 10:00 Cloudy with Light Rain 62 16.7 61 16.1 96 96 NNW 13 20 29.81 1009 2 3 0.02 0.51
10:11 am 10:11 Cloudy with Light Rain 62 16.7 61 16.1 96 96 NW 13 20 29.81 1009 2 2 0.04 1.02
10:52 am 10:52 Cloudy with Light Rain 62 16.7 61 16.1 96 96 NW 13 20 29.80 1009 3 5 0.11 2.79
11:39 am 11:39 Cloudy with Light Rain 63 17.2 61 16.1 93 93 NNW 14 22 29.78 1009 3 4 0.03 0.76
11:52 am 11:52 Cloudy with Light Rain 63 17.2 62 16.7 97 97 NNW 14 22 29.78 1009 2 3 0.03 0.76
12:52 pm 12:52 Cloudy with Light Rain 63 17.2 62 16.7 97 97 N 12 19 29.77 1008 2 3 0.04 1.02
1:42 pm 13:42 Cloudy with Light Rain 65 18.3 63 17.2 93 93 NNW 13 20 29.75 1007 3 5 0.06 1.52
1:52 pm 13:52 Cloudy 66 18.9 63 17.2 90 90 NNW 15 24 29.76 1008 3 5 0.06 1.52
2:52 pm 14:52 Cloudy with Mist and Fog 65 18.3 62 16.7 90 90 NNW 14 22 29.75 1007 6 10 0.00 0.00
3:52 pm 15:52 Cloudy 66 18.9 63 17.2 90 90 NNW 20 31 29.73 1007 7 11 0.00 0.00
4:52 pm 16:52 Cloudy 66 18.9 62 16.7 87 87 NNW 18 30 29.73 1007 10 16 0.00 0.00
5:40 pm 17:40 Cloudy 66 18.9 62 16.7 87 87 NNW 18 30 29.72 1006 10 16 0.00 0.00
5:52 pm 17:52 Cloudy 66 18.9 62 16.7 87 87 NNW 21 33 29.73 1007 10 16 0.00 0.00
6:52 pm 18:52 Cloudy 66 18.9 62 16.7 87 87 NNW 18 30 29.74 1007 10 16 0.00 0.00
7:52 pm 19:52 Cloudy 65 18.3 62 16.7 90 90 N 15 24 29.76 1008 10 16 0.00 0.00
8:52 pm 20:52 Cloudy 65 18.3 61 16.1 87 87 NNW 16 26 29.78 1009 7 11 0.00 0.00
9:52 pm 21:52 Cloudy 64 17.8 61 16.1 90 90 NW 10 17 29.81 1009 10 16 0.00 0.00
10:52 pm 22:52 Cloudy with Drizzle 64 17.8 61 16.1 90 90 NW 8 13 29.82 1010 5 8 0.00 0.00
11:52 pm 23:52 Cloudy 64 17.8 62 16.7 93 93 NW 7 11 29.82 1010 7 11 0.00 0.00

Powered by AerisWeather